Weather History for KFDY - May, 2012

Change the Weather History Date:

Monday, May 7, 2012

  Actual Average Record
Temperature  
Mean Temperature 66 °F -  
Max Temperature 78 °F 67 °F 84 °F (2000)
Min Temperature 53 °F 45 °F 28 °F (1974)
Growing Degree Days 16 (Base 50)    
Moisture  
Dew Point 54 °F    
Average Humidity 78    
Maximum Humidity 97    
Minimum Humidity 39    
Precipitation  
Precipitation 0.25 in - - ()
Sea Level Pressure  
Sea Level Pressure 29.85 in    
Wind  
Wind Speed 9 mph (NE)    
Max Wind Speed 14 mph    
Max Gust Speed 26 mph    
Visibility 9 miles    
Events Rain , Thunderstorm    
Averages and records for this station are not official NWS values.
T = Trace of Precipitation, MM = Missing Value Source: NWS Daily Summary

Daily Weather History Graph

Daily Weather History Graph

Search for Another Location

Airport or City:

Trip Planner

Search our weather history database for the weather conditions in past years. The results will help you decide how hot, cold, wet, or windy it might be!

Date:

Astronomy

May. 07, 2012 Rise Set
Actual Time 6:24 AM EDT 8:38 PM EDT
Civil Twilight 5:54 AM EDT 9:08 PM EDT
Nautical Twilight 5:16 AM EDT 9:46 PM EDT
Astronomical Twilight 4:35 AM EDT 10:28 PM EDT
Moon 10:49 PM EDT (5/7) 7:28 AM EDT (5/7)
Length of Visible Light 15h 14m
Length of Day
14h 13m
Waning Gibbous, 97% of the Moon is Illuminated
May 7
Waning Gibbous
May 12
Last Quarter
May 20
New
May 28
First Quarter
Jun 4
Full

Hourly Weather History & Observations

Time (EDT) Temp. Dew Point Humidity Pressure Visibility Wind Dir Wind Speed Gust Speed Precip Events Conditions
12:53 AM 57.9 °F 33.1 °F 39% 29.93 in 10.0 mi ENE 12.7 mph - N/A   Clear
1:53 AM 57.0 °F 36.0 °F 45% 29.91 in 10.0 mi ENE 10.4 mph - N/A   Clear
2:53 AM 55.9 °F 39.9 °F 55% 29.90 in 10.0 mi ENE 5.8 mph - N/A   Mostly Cloudy
3:53 AM 55.9 °F 42.1 °F 60% 29.88 in 10.0 mi East 6.9 mph - N/A   Mostly Cloudy
4:53 AM 57.0 °F 43.0 °F 59% 29.88 in 10.0 mi NE 8.1 mph - N/A   Overcast
5:29 AM 57.2 °F 42.8 °F 59% 29.89 in 10.0 mi NE 9.2 mph - N/A Thunderstorm Thunderstorm
5:53 AM 57.0 °F 43.0 °F 59% 29.87 in 10.0 mi East 8.1 mph - N/A   Overcast
6:06 AM 57.2 °F 42.8 °F 59% 29.88 in 10.0 mi ENE 9.2 mph - N/A Thunderstorm Overcast
6:53 AM 55.9 °F 46.0 °F 69% 29.85 in 10.0 mi East 11.5 mph - 0.00 in Thunderstorm Overcast
7:24 AM 57.2 °F 44.6 °F 63% 29.85 in 10.0 mi ESE 9.2 mph - N/A   Overcast
7:53 AM 55.9 °F 48.0 °F 75% 29.88 in 10.0 mi NNW 13.8 mph 26.5 mph N/A   Overcast
8:10 AM 55.4 °F 48.2 °F 77% 29.90 in 10.0 mi North 10.4 mph - N/A Thunderstorm Overcast
8:25 AM 55.4 °F 48.2 °F 77% 29.93 in 10.0 mi North 12.7 mph - N/A   Overcast
8:32 AM 53.6 °F 50.0 °F 88% 29.92 in 10.0 mi North 13.8 mph - N/A Thunderstorm Overcast
8:44 AM 53.6 °F 50.0 °F 88% 29.91 in 10.0 mi North 12.7 mph 20.7 mph N/A Thunderstorm Overcast
8:53 AM 54.0 °F 50.0 °F 86% 29.91 in 10.0 mi NNE 12.7 mph - N/A Thunderstorm Overcast
8:58 AM 53.6 °F 51.8 °F 94% 29.93 in 10.0 mi North 11.5 mph - N/A   Overcast
9:05 AM 53.6 °F 51.8 °F 94% 29.92 in 10.0 mi NE 8.1 mph - N/A Thunderstorm Overcast
9:18 AM 53.6 °F 51.8 °F 94% 29.92 in 10.0 mi NE 6.9 mph - N/A Thunderstorm Overcast
9:33 AM 53.6 °F 51.8 °F 94% 29.91 in 10.0 mi ENE 9.2 mph - 0.00 in Rain , Thunderstorm Light Thunderstorms and Rain
9:53 AM 54.0 °F 52.0 °F 93% 29.91 in 10.0 mi ENE 5.8 mph - 0.01 in Rain , Thunderstorm Light Thunderstorms and Rain
10:30 AM 55.4 °F 53.6 °F 94% 29.91 in 8.0 mi East 3.5 mph - 0.07 in Rain Light Rain
10:53 AM 57.0 °F 54.0 °F 89% 29.88 in 10.0 mi ESE 6.9 mph - 0.07 in   Scattered Clouds
11:53 AM 61.0 °F 55.9 °F 83% 29.86 in 10.0 mi SE 10.4 mph - N/A   Mostly Cloudy
12:53 PM 69.1 °F 60.1 °F 73% 29.85 in 10.0 mi SSE 8.1 mph - 0.01 in   Clear
1:53 PM 73.9 °F 61.0 °F 64% 29.82 in 10.0 mi Variable 4.6 mph - N/A   Clear
2:53 PM 78.1 °F 59.0 °F 52% 29.80 in 10.0 mi SW 8.1 mph - N/A   Partly Cloudy
3:53 PM 75.9 °F 64.9 °F 69% 29.79 in 10.0 mi NNW 11.5 mph - N/A   Scattered Clouds
4:53 PM 72.0 °F 63.0 °F 73% 29.77 in 10.0 mi NNW 13.8 mph - 0.01 in Rain Light Rain
5:53 PM 70.0 °F 62.1 °F 76% 29.77 in 10.0 mi NNW 11.5 mph - 0.00 in   Partly Cloudy
6:49 PM 66.2 °F 62.6 °F 88% 29.80 in 8.0 mi NNW 5.8 mph - 0.05 in Rain , Thunderstorm Light Rain
6:53 PM 66.9 °F 62.1 °F 84% 29.78 in 7.0 mi NNW 4.6 mph - 0.06 in Rain , Thunderstorm Light Rain
7:04 PM 66.2 °F 62.6 °F 88% 29.81 in 5.0 mi NW 4.6 mph - 0.02 in Rain , Thunderstorm Light Rain
7:24 PM 66.2 °F 64.4 °F 94% 29.77 in 5.0 mi ENE 8.1 mph - 0.07 in Rain , Thunderstorm Rain
7:45 PM 66.2 °F 64.4 °F 94% 29.78 in 7.0 mi North 4.6 mph - 0.08 in Rain Light Rain
7:53 PM 66.9 °F 63.0 °F 87% 29.77 in 8.0 mi NNE 3.5 mph - 0.08 in   Partly Cloudy
8:53 PM 66.0 °F 63.0 °F 90% 29.78 in 8.0 mi Calm Calm - N/A   Clear
9:53 PM 64.9 °F 64.0 °F 97% 29.81 in 4.0 mi SSE 3.5 mph - N/A   Overcast
10:53 PM 64.9 °F 64.0 °F 97% 29.79 in 4.0 mi Calm Calm - 0.00 in Rain Light Rain
11:38 PM 64.4 °F 62.6 °F 94% 29.79 in 2.5 mi Calm Calm - 0.01 in   Partly Cloudy
11:53 PM 63.0 °F 62.1 °F 97% 29.78 in 1.2 mi Calm Calm - 0.01 in   Mostly Cloudy